Tupelo, MS

6:16 PM CDT on April 24, 2018 (GMT -0500)
Tupelo Regional

Weather History for KTUP - January, 2013

Change the Weather History Date:

Wednesday, January 2, 2013

  Actual Average Record
Temperature  
Mean Temperature 35 °F 42 °F  
Max Temperature 38 °F 51 °F 75 °F (2006)
Min Temperature 32 °F 32 °F 9 °F (2018)
Degree Days  
Heating Degree Days 30 23  
Month to date heating degree days 51 46  
Since 1 July heating degree days 1138 1219  
Cooling Degree Days 0 0  
Month to date cooling degree days 0 0  
Year to date cooling degree days 0 0  
Moisture  
Dew Point 29 °F    
Average Humidity 81    
Maximum Humidity 92    
Minimum Humidity 70    
Precipitation  
Precipitation 0.00 in 0.15 in 3.50 in (1937)
Month to date precipitation 1.14 0.30  
Year to date precipitation 1.14 0.30  
Snow  
Snow 0.00 in 0.10 in T in (1979)
Month to date snowfall 0.0 0.1  
Since 1 July snowfall T 0.4  
Snow Depth 0.00 in    
Sea Level Pressure  
Sea Level Pressure 30.22 in    
Wind  
Wind Speed 6 mph (NNE)    
Max Wind Speed 13 mph    
Max Gust Speed 16 mph    
Visibility 9 miles    
Events      
T = Trace of Precipitation, MM = Missing Value Source: NWS Daily Summary

Daily Weather History Graph

Daily Weather History Graph

Search for Another Location

Airport or City:

Astronomy

Jan. 02, 2013 Rise Set
Actual Time 7:01 AM CST 4:57 PM CST
Civil Twilight 6:33 AM CST 5:25 PM CST
Nautical Twilight 6:02 AM CST 5:56 PM CST
Astronomical Twilight 5:32 AM CST 6:26 PM CST
Moon 10:13 PM CST (1/2) 9:57 AM CST (1/2)
Length of Visible Light 10h 51m
Length of Day
9h 55m
Waning Gibbous, 75% of the Moon is Illuminated
Jan 2
Waning Gibbous
Jan 4
Last Quarter
Jan 11
New
Jan 18
First Quarter
Jan 26
Full

Hourly Weather History & Observations

Time (CST) Temp. Windchill Dew Point Humidity Pressure Visibility Wind Dir Wind Speed Gust Speed Precip Events Conditions
12:53 AM 37.0 °F 31.0 °F 35.1 °F 93% 30.15 in 8.0 mi North 8.1 mph - N/A   Overcast
1:53 AM 37.0 °F 29.8 °F 34.0 °F 89% 30.16 in 8.0 mi North 10.4 mph - N/A   Overcast
2:53 AM 36.0 °F 28.0 °F 33.1 °F 89% 30.17 in 9.0 mi NNE 11.5 mph - N/A   Overcast
3:53 AM 35.1 °F 27.9 °F 33.1 °F 92% 30.18 in 6.0 mi North 9.2 mph - N/A   Overcast
4:53 AM 35.1 °F 27.9 °F 32.0 °F 89% 30.18 in 5.0 mi NNE 9.2 mph - N/A   Overcast
5:50 AM 33.8 °F 25.8 °F 30.2 °F 87% 30.21 in 10.0 mi NE 10.4 mph - N/A   Overcast
5:53 AM 34.0 °F 26.0 °F 30.0 °F 85% 30.21 in 10.0 mi NE 10.4 mph - N/A   Overcast
6:18 AM 33.8 °F 27.7 °F 30.2 °F 87% 30.21 in 6.0 mi North 6.9 mph - N/A   Overcast
6:53 AM 33.1 °F 25.5 °F 30.0 °F 89% 30.22 in 6.0 mi North 9.2 mph - N/A   Overcast
7:37 AM 33.8 °F 25.8 °F 28.4 °F 81% 30.22 in 9.0 mi NE 10.4 mph - N/A   Overcast
7:53 AM 33.1 °F 25.5 °F 28.0 °F 82% 30.23 in 9.0 mi NE 9.2 mph - N/A   Scattered Clouds
8:01 AM 33.8 °F 26.4 °F 28.4 °F 81% 30.22 in 9.0 mi NE 9.2 mph - N/A   Mostly Cloudy
8:53 AM 33.1 °F 26.1 °F 28.0 °F 82% 30.24 in 9.0 mi NNE 8.1 mph - N/A   Overcast
9:53 AM 34.0 °F 26.6 °F 28.0 °F 79% 30.25 in 9.0 mi NE 9.2 mph - N/A   Mostly Cloudy
10:30 AM 33.8 °F 27.0 °F 26.6 °F 75% 30.25 in 9.0 mi NE 8.1 mph - N/A   Scattered Clouds
10:53 AM 34.0 °F 29.8 °F 27.0 °F 75% 30.24 in 9.0 mi NNE 4.6 mph - N/A   Scattered Clouds
11:53 AM 35.1 °F 29.3 °F 28.0 °F 76% 30.23 in 9.0 mi NNE 6.9 mph - N/A   Partly Cloudy
12:53 PM 35.1 °F 30.1 °F 28.0 °F 76% 30.19 in 10.0 mi NE 5.8 mph - N/A   Partly Cloudy
1:53 PM 36.0 °F 30.3 °F 28.0 °F 73% 30.20 in 10.0 mi NE 6.9 mph - N/A   Scattered Clouds
2:53 PM 36.0 °F - 28.0 °F 73% 30.20 in 10.0 mi Calm Calm - N/A   Clear
3:53 PM 36.0 °F 31.1 °F 28.0 °F 73% 30.21 in 9.0 mi North 5.8 mph - N/A   Partly Cloudy
4:53 PM 35.1 °F 31.0 °F 28.0 °F 76% 30.23 in 10.0 mi North 4.6 mph - N/A   Clear
5:53 PM 35.1 °F 32.2 °F 27.0 °F 72% 30.25 in 10.0 mi North 3.5 mph - N/A   Clear
6:53 PM 34.0 °F 29.8 °F 27.0 °F 75% 30.25 in 10.0 mi North 4.6 mph - N/A   Clear
7:53 PM 34.0 °F - 27.0 °F 75% 30.25 in 10.0 mi Calm Calm - N/A   Clear
8:53 PM 34.0 °F 29.8 °F 27.0 °F 75% 30.27 in 10.0 mi North 4.6 mph - N/A   Clear
9:53 PM 33.1 °F 30.0 °F 26.1 °F 75% 30.27 in 10.0 mi North 3.5 mph - N/A   Clear
10:53 PM 32.0 °F 28.7 °F 26.1 °F 79% 30.27 in 10.0 mi North 3.5 mph - N/A   Clear
11:53 PM 32.0 °F 27.5 °F 26.1 °F 79% 30.26 in 10.0 mi North 4.6 mph - N/A   Clear